[[{"header":{"parameterUnit":"m.s-1","parameterCategory":1,"la1":30.2991,"la2":30.254,"lo1":-89.0895,"lo2":-89.0444,"dy":0.0017,"dx":0.0017,"nx":28,"ny":28,"refTime":"2023-07-21T21:00:00:Z","depth":0,"parameterNumber":2,"parameterNumberName":"U-component_of_WINDS"},"data":[0,0,0,0,0,0,0,0,0,0,0,0,0,0,0,0,0,0,0,0,0,0,0,0,0,0,0,0,0,0,0,0,0,0,0,0,0,0,0,0,0,0,0,0,0,0,0,0,0,0,0,0,0,0,0,0,0,0,0.9855,0.9857,0,0.9978,0.998,0.9981,1.002,1.0019,1.0019,1.0018,1.015,1.0153,1.0157,0,0,0,0,0,0,0,0,0,0,0,0,0,0.966,0.9663,0.9855,0.9857,0.9858,0.9978,0.998,0.9981,1.002,1.0019,1.0018,1.0018,1.0148,1.0153,1.0158,0,0,0,0,0,0,0,0,0,0,0,0,0,0.976,0.9664,0.9855,0.9892,0.9896,0.9978,0.998,0.9982,1.002,1.0019,1.0018,1.0017,1.0147,1.0152,1.0158,1.0214,0,0,1.0177,1.018,0,0,0,0,0,0,0,0,0.9754,0.9767,0.9885,0.9889,0.9895,0.9983,0.9959,1.006,1.002,0.9973,1.0018,1.0017,1.0095,1.0105,1.013,1.022,1.0225,1.0178,1.0181,1.0184,1.0186,0,0,0,0,0,0,0,0.9747,0.9762,0.9904,0.9887,0.9893,0.9904,0.9917,0.9978,1.0038,0.9977,0.998,0.9994,1.0098,1.0125,1.0134,1.0227,1.0177,1.0183,1.0187,1.0189,1.0369,1.0371,0,0,0,0,0,0,0.9733,0.9756,0.99,0.9908,0.9821,0.9908,0.9923,0.9955,1.0037,1.0049,0.9995,0.9995,1.0115,1.0127,1.0139,1.0209,1.0184,1.019,1.0193,1.0368,1.037,1.0371,0,0,0,0,0,0,0.9729,0.9746,0.9895,0.9833,0.9853,0.9913,0.9949,0.9958,0.9985,1.005,1.0062,1.0011,1.0114,1.013,1.0195,1.0214,1.0192,1.0198,1.0367,1.0369,1.037,1.035,0,0,0,0,0,0,0.9723,0.9744,0.9764,0.9833,0.9856,0.9947,0.995,0.9961,0.9995,0.9997,1.0068,1.008,1.0115,1.0185,1.0201,1.0222,1.0203,1.0365,1.0368,1.037,1.0349,1.0351,1.0352,0,0,0,0,0,0.9716,0.9755,0.9765,0.9782,0.9882,0.9948,0.9962,1.0,0.9996,1.0018,1.006,1.0077,1.0209,1.0191,1.0209,1.0233,1.0364,1.0367,1.037,1.0349,1.0351,1.0352,0,0,0,0,0,0,0.9688,0.9764,0.9777,0.9838,0.9886,0.9954,0.9983,1.0001,1.0052,1.0052,1.0099,1.0115,1.0176,1.0211,1.019,1.0291,1.0288,1.0294,1.0266,1.0268,1.027,1.026,1.0208,0,0,0,0,0,0.9689,0.9735,0.9799,0.9848,0.9871,0.9923,0.9953,0.9978,1.0031,1.0052,1.0099,1.015,1.0204,1.0238,1.0291,1.0355,1.0372,1.038,1.0381,1.0382,1.0387,1.0425,1.0429,1.0379,1.0379,1.0379,0,0,0.9692,0.9739,0.9765,0.9843,0.9883,0.9931,0.994,0.999,1.0027,1.006,1.0123,1.0159,1.0221,1.0285,1.0316,1.0316,1.0405,1.0385,1.0386,1.039,1.0428,1.0432,1.0437,1.0381,1.0381,1.0381,0,0,0.9721,0.976,0.9805,0.9845,0.9905,0.994,0.995,1.0016,1.0041,1.0105,1.0131,1.0177,1.0267,1.031,1.0343,1.0389,1.0407,1.0405,1.0413,1.0449,1.0453,1.0457,1.0474,1.0479,1.041,1.041,1.041,0,0.9717,0.9788,0.9827,0.9875,0.991,0.994,0.9987,1.0025,1.01,1.0124,1.0122,1.0237,1.028,1.0355,1.0366,1.0392,1.0407,1.0397,1.0449,1.0453,1.0457,1.0474,1.048,1.0409,1.0409,1.0409,1.0409,0,0.9781,0.9831,0.986,0.993,0.9967,1.0015,1.0062,1.0096,1.0118,1.0153,1.0218,1.0271,1.0335,1.0355,1.0378,1.0434,1.0432,1.0439,1.0437,1.0461,1.0477,1.0484,1.0408,1.0409,1.0409,1.0409,0,0,0.9797,0.9886,0.9897,0.9929,0.9998,1.0038,1.0087,1.0148,1.0177,1.0228,1.0272,1.0348,1.0355,1.0393,1.0421,1.0452,1.0486,1.0456,1.0458,1.046,1.0553,1.0547,1.0554,1.0499,1.05,1.0501,1.0548,0,0.9835,0.9923,0.9959,1.0031,1.0078,1.0108,1.0152,1.02,1.0234,1.028,1.0319,1.0372,1.0377,1.04,1.0432,1.0475,1.0505,1.0472,1.0542,1.0544,1.0525,1.0562,1.0556,1.0598,1.0554,1.0555,1.0556,0,0.9892,0.9941,1.0017,1.0081,1.0102,1.014,1.0199,1.0242,1.0298,1.0321,1.0363,1.0389,1.0445,1.0438,1.0516,1.0493,1.0523,1.0549,1.0552,1.056,1.0551,1.0572,1.0612,1.0618,1.0567,1.0566,1.0565,0,0.9896,0.9982,1.0039,1.0065,1.0141,1.0167,1.02,1.0255,1.0289,1.0342,1.0365,1.0424,1.0456,1.0502,1.0544,1.0535,1.0618,1.0615,1.064,1.0639,1.0657,1.0655,1.0702,1.0675,1.0675,1.0675,1.0675,0,0.9936,0.9981,1.0042,1.0076,1.0129,1.0171,1.0222,1.0258,1.0306,1.035,1.038,1.0421,1.0474,1.0522,1.0556,1.0615,1.063,1.0651,1.066,1.0649,1.0646,1.067,1.0668,1.0677,1.0676,1.0676,1.0676,0,0.9949,0.9991,1.0055,1.0121,1.0139,1.0174,1.0232,1.0268,1.0303,1.0358,1.0374,1.043,1.0488,1.0535,1.0611,1.0634,1.0697,1.0706,1.0678,1.0682,1.0704,1.0702,1.0769,1.078,1.0745,1.0745,1.0746,0,0.9972,1.0007,1.0076,1.0107,1.0139,1.0188,1.0223,1.0266,1.0302,1.0368,1.0396,1.0456,1.0507,1.0599,1.0648,1.0707,1.0718,1.0738,1.0727,1.0715,1.0719,1.0717,1.0721,1.0739,1.0739,1.0739,1.0739,0,1.0008,1.0027,1.0075,1.0131,1.0171,1.0218,1.0265,1.0289,1.0341,1.038,1.0438,1.0477,1.0555,1.0615,1.0679,1.0715,1.0736,1.0742,1.0751,1.074,1.0722,1.0733,1.0681,1.074,1.074,1.074,1.074,1.074,1.0027,1.006,1.0114,1.0167,1.0207,1.025,1.0287,1.0327,1.0376,1.0441,1.0464,1.0525,1.0581,1.0669,1.0706,1.0755,1.0757,1.077,1.0773,1.0776,1.0775,1.0714,1.0767,1.0767,1.0767,1.0767,1.0767,0,1.0065,1.0101,1.0149,1.0213,1.0256,1.027,1.0323,1.0358,1.0411,1.046,1.0508,1.0577,1.0635,1.0688,1.0749,1.0779,1.079,1.0794,1.0792,1.08,1.0769,1.0756,1.0783,1.0783,1.0783,1.0783,1.0783,1.0783,1.0089,1.0146,1.0172,1.0249,1.0286,1.0344,1.0373,1.0414,1.0454,1.0528,1.0576,1.0609,1.0661,1.0726,1.0781,1.0795,1.0817,1.0817,1.0834,1.0805,1.0802,1.08,1.0788,1.0821,1.0822,1.0861,1.0862,1.0862]},{"header":{"parameterUnit":"m.s-1","parameterCategory":1,"la1":30.2991,"la2":30.254,"lo1":-89.0895,"lo2":-89.0444,"dy":0.0017,"dx":0.0017,"nx":28,"ny":28,"refTime":"2023-07-21T21:00:00:Z","depth":0,"parameterNumber":3,"parameterNumberName":"V-component_of_WINDS"},"data":[0,0,0,0,0,0,0,0,0,0,0,0,0,0,0,0,0,0,0,0,0,0,0,0,0,0,0,0,0,0,0,0,0,0,0,0,0,0,0,0,0,0,0,0,0,0,0,0,0,0,0,0,0,0,0,0,0,0,2.6714,2.6714,0,2.6713,2.6713,2.6713,2.6699,2.6698,2.6698,2.6698,2.6694,2.6694,2.6694,0,0,0,0,0,0,0,0,0,0,0,0,0,2.6698,2.6699,2.6714,2.6714,2.6714,2.6713,2.6713,2.6713,2.6699,2.6698,2.6698,2.6697,2.6694,2.6694,2.6694,0,0,0,0,0,0,0,0,0,0,0,0,0,2.6702,2.6699,2.6714,2.6707,2.6706,2.6713,2.6713,2.6713,2.6699,2.6698,2.6698,2.6697,2.6693,2.6694,2.6694,2.6707,0,0,2.6695,2.6695,0,0,0,0,0,0,0,0,2.6702,2.6703,2.6708,2.6707,2.6707,2.6706,2.6706,2.6711,2.6699,2.6702,2.6698,2.6697,2.6698,2.6698,2.6699,2.6707,2.6707,2.6695,2.6695,2.6696,2.6696,0,0,0,0,0,0,0,2.6702,2.6703,2.6714,2.6708,2.6707,2.6702,2.6702,2.6707,2.6703,2.6701,2.67,2.67,2.6697,2.6698,2.6699,2.6707,2.6695,2.6696,2.6696,2.6696,2.6721,2.6722,0,0,0,0,0,0,2.6703,2.6702,2.6714,2.6714,2.6703,2.6703,2.6703,2.6706,2.6703,2.6702,2.6701,2.67,2.6698,2.6698,2.6698,2.6711,2.6696,2.6696,2.6696,2.6721,2.6721,2.6722,0,0,0,0,0,0,2.6703,2.6704,2.6714,2.6708,2.6709,2.6704,2.6708,2.6707,2.6708,2.6702,2.6701,2.6703,2.6698,2.6698,2.6704,2.671,2.6696,2.6696,2.672,2.6721,2.6721,2.6737,0,0,0,0,0,0,2.6702,2.6704,2.6711,2.6708,2.6709,2.6722,2.6708,2.6707,2.6709,2.6707,2.6704,2.6703,2.6697,2.6704,2.6705,2.6711,2.6697,2.672,2.672,2.6721,2.6736,2.6738,2.674,0,0,0,0,0,2.6702,2.6715,2.6711,2.6713,2.6717,2.6722,2.6723,2.6717,2.671,2.6715,2.671,2.6703,2.671,2.6705,2.6705,2.6712,2.6719,2.672,2.6721,2.6735,2.6738,2.674,0,0,0,0,0,0,2.6719,2.6715,2.671,2.6724,2.6723,2.672,2.6727,2.672,2.6721,2.672,2.6711,2.671,2.6717,2.6715,2.671,2.6722,2.6713,2.6714,2.6723,2.6726,2.6728,2.6728,2.6697,0,0,0,0,0,2.6724,2.673,2.6726,2.6738,2.6738,2.6732,2.6734,2.6729,2.6728,2.6728,2.6724,2.6722,2.6723,2.6725,2.6726,2.6736,2.6733,2.674,2.6742,2.6744,2.6744,2.6746,2.6748,2.6725,2.6725,2.6725,0,0,2.6735,2.6734,2.6738,2.6741,2.674,2.6744,2.6732,2.6738,2.674,2.6728,2.6734,2.6731,2.6728,2.6735,2.6738,2.6733,2.675,2.6745,2.6746,2.6746,2.6747,2.675,2.6751,2.6726,2.6726,2.6726,0,0,2.6757,2.6758,2.6766,2.6765,2.6764,2.6759,2.6761,2.6758,2.6755,2.6761,2.6751,2.6752,2.6756,2.6753,2.6752,2.6769,2.6761,2.6769,2.678,2.6782,2.6783,2.6785,2.6788,2.679,2.677,2.677,2.677,0,2.6771,2.6778,2.6772,2.6777,2.6777,2.6766,2.6773,2.6772,2.6771,2.677,2.6765,2.6767,2.6764,2.6769,2.6773,2.6773,2.6773,2.677,2.6784,2.6785,2.6787,2.679,2.6792,2.6771,2.6771,2.6771,2.6771,0,2.6793,2.6798,2.6805,2.6803,2.6804,2.6811,2.6803,2.6804,2.6798,2.6793,2.6797,2.6793,2.6792,2.6792,2.6787,2.6796,2.6792,2.6786,2.6776,2.679,2.6793,2.6794,2.6772,2.6772,2.6772,2.6772,0,0,2.6827,2.682,2.6823,2.6821,2.6817,2.6819,2.6823,2.6822,2.6822,2.6821,2.6822,2.6823,2.6816,2.6815,2.6809,2.681,2.682,2.6803,2.6803,2.6805,2.6826,2.683,2.6832,2.6815,2.6815,2.6815,2.6826,0,2.6846,2.6855,2.6847,2.6856,2.6858,2.6846,2.6849,2.6846,2.6841,2.684,2.6834,2.6834,2.6826,2.6825,2.6826,2.6819,2.6824,2.6818,2.6814,2.6814,2.6815,2.6834,2.6839,2.6849,2.6827,2.6827,2.6827,0,2.6871,2.687,2.6878,2.6871,2.6871,2.6875,2.6871,2.6872,2.6866,2.6862,2.6859,2.6851,2.6852,2.6843,2.6842,2.6838,2.6836,2.6832,2.6832,2.6831,2.6821,2.6832,2.6853,2.6854,2.6829,2.6829,2.6829,0,2.6891,2.6892,2.6897,2.6895,2.6888,2.6889,2.6886,2.688,2.6879,2.6875,2.6874,2.687,2.6868,2.6864,2.6854,2.6849,2.6853,2.6845,2.6848,2.6848,2.685,2.685,2.6869,2.685,2.685,2.685,2.685,0,2.6913,2.6918,2.6906,2.6908,2.6913,2.6903,2.6907,2.6902,2.6896,2.6896,2.6885,2.6885,2.6873,2.687,2.6862,2.6861,2.6861,2.6856,2.6853,2.6856,2.6857,2.6854,2.6853,2.685,2.685,2.685,2.685,0,2.6937,2.6929,2.6933,2.6924,2.6922,2.6925,2.6917,2.6918,2.6911,2.6911,2.691,2.6899,2.6895,2.6885,2.6879,2.6873,2.6874,2.687,2.6876,2.6874,2.6878,2.6877,2.6896,2.6897,2.6878,2.6878,2.6879,0,2.695,2.6954,2.6945,2.6945,2.6941,2.6941,2.6939,2.6928,2.6927,2.6919,2.692,2.6915,2.6911,2.6905,2.6896,2.689,2.6885,2.6892,2.6884,2.6886,2.6883,2.6883,2.6882,2.6893,2.6894,2.6894,2.6894,0,2.6974,2.697,2.6968,2.6964,2.6962,2.6959,2.6955,2.6954,2.6942,2.694,2.6936,2.6933,2.6926,2.692,2.6912,2.6907,2.6897,2.6897,2.6897,2.6899,2.6902,2.6899,2.6879,2.6896,2.6896,2.6896,2.6896,2.6896,2.6992,2.6994,2.6987,2.6985,2.698,2.6976,2.6975,2.6968,2.6965,2.6959,2.6952,2.6948,2.694,2.6928,2.6923,2.6918,2.6914,2.6915,2.6915,2.6915,2.6915,2.6903,2.6917,2.6917,2.6917,2.6917,2.6917,0,2.7014,2.7008,2.7006,2.7,2.6998,2.699,2.6984,2.6982,2.6979,2.6972,2.6968,2.6962,2.6956,2.6945,2.6938,2.6936,2.6931,2.6934,2.6933,2.6932,2.6921,2.692,2.6938,2.6938,2.6938,2.6938,2.6938,2.6938,2.7025,2.7026,2.702,2.7018,2.7012,2.7009,2.7006,2.7,2.6995,2.6989,2.6984,2.6977,2.6968,2.6959,2.6952,2.6949,2.6946,2.695,2.6945,2.6935,2.6933,2.6931,2.6931,2.695,2.695,2.6957,2.6957,2.6957]}]]